Starlink 5333

operational
NORAD ID: 56507 Int'l Des: 2023-065 Owner: SPXS Country: US Constellation: starlink
LEOCIRCULAR

About Starlink 5333

Description loading...

Live Position

Loading 3D Globe...

Upcoming Passes

Altitude History

Altitude vs Time

uPlot chart will show altitude changes over time

Two-Line Element Set

1 56507U 23065E 25305.60809468 .00000007 00000-0 15606-4 0 9994
2 56507 43.0032 147.6316 0001246 263.2875 96.7825 15.02530580137806
Epoch: Nov 1, 2025 • Age: 16 hours

Current Status

Altitude 561.9 km
Velocity 7.58 km/s
Sub-Earth Point -15.50°S, 11.66°W
Launch Date May 14, 2023
Age 2.4 years
Type internet

Technical Details

Classification Payload
Mass 305.00 kg
Dry Mass 290.00 kg
Total Mass 305.00 kg
Length 0.20 m
Diameter 2.80 m
Span 9.00 m
Shape Box + pan
Manufacturer SPXS
Bus Type Starlink
Phase Status In Orbit
Owner/State SPXS/US

Large Constellations

Loading constellations...